Regional Weather Roundup
Issued by NWS Grand Forks, ND

Home | Current Version | Previous Version | Text Only | Print | Product List | Glossary Off
Versions: 1 2 3 4 5 6 7 8 9 10 11 12 13 14 15 16 17 18 19 20 21 22 23 24 25 26 27 28 29 30 31 32 33 34 35 36 37 38 39 40 41 42 43 44 45 46 47 48 49 50

000
ASUS43 KFGF 241631
RWRFGF
PRAIRIE TO PINES  WEATHER ROUNDUP
NATIONAL WEATHER SERVICE EASTERN NORTH DAKOTA/GRAND FORKS ND
1100 AM CDT TUE APR 24 2018

 **SATELLITE DATA USED TO AUGMENT SKY COVER AT AUTOMATED STATIONS**
 *****  WEATHER ACROSS EASTERN NORTH DAKOTA  *****

CITY           SKY/WX    TMP DP  RH WIND       PRES   REMARKS
GRAND FORKS    FAIR      45  33  63 N21G29    30.39S
GRAND FRKS AFB FAIR      47  31  53 N20       30.40R
GRAND FRKS NWS   N/A     39  33  79 N9        30.36S
DEVILS LAKE    FAIR      44  27  51 N17G24    30.43R
FARGO          FAIR      46  35  65 N17       30.35S
WAHPETON ARPT  PTSUNNY   45  36  70 N12       30.35R
$$

 ***** WEATHER ACROSS CENTRAL AND WESTERN NORTH DAKOTA  *****

CITY           SKY/WX    TMP DP  RH WIND       PRES   REMARKS
BISMARCK       FAIR      49  26  41 NE18G28   30.45S
MINOT          FAIR      51  25  36 NW10      30.45S
JAMESTOWN      FAIR      47  32  56 N24       30.39R
MINOT AFB      FAIR      51  25  37 NW13      30.44S
GARRISON         N/A     46  24  42 NW6       30.46S
WILLISTON      FAIR      50  29  44 S8        30.49S
DICKINSON      FAIR      48  23  37 NE12      30.46S
HETTINGER      FAIR      37  29  72 N13       30.49R
$$

 *****  OTHER AIRPORT OBSERVATIONS IN OUR AREA  *****

CITY           SKY/WX    TMP DP  RH WIND       PRES   REMARKS
WALHALLA       FAIR      43  27  52 N20       30.43R
GRAFTON AIRPOR FAIR      45  28  53 NW16G25   30.43R
VALLEY CITY AR FAIR      46  34  61 N20       30.40R
CANDO          FAIR      48  27  43 N14       30.46R
CAVALIER APRT    N/A     43  28  56 N18       30.42S
GWINNER          N/A     43  39  87 N14       30.37R
ROLLA          FAIR      43  30  61 NW10      30.44R
 ***** THE ABOVE OBSERVATIONS ARE NON NWS ARE NOT QUALITY
       CONTROLLED AND MAY MIS-REPORT RAIN FOR SNOW...
$$

  *****  WEATHER ACROSS NORTHERN MINNESOTA  *****

CITY           SKY/WX    TMP DP  RH WIND       PRES   REMARKS
FLAG ISLAND    PTSUNNY   30  19  64 N17       30.36R WCI  18
WARROAD        FAIR      41  27  56 NW13G22   30.35R
ROSEAU         FAIR      43  32  65 NW18      30.34S
HALLOCK        FAIR      45  27  49 NW20G28   30.39S
THF RVR FALLS  FAIR      44  29  55 NW20      30.36S
BAUDETTE       FAIR      39  26  59 N20G28    30.32R
WASKISH        PTSUNNY   45  30  57 W8        30.30F
CROOKSTON      FAIR      46  34  61 N20G26    30.38S
$$
  *****  WEATHER ACROSS CENTRAL AND WEST MINNESOTA  *****

CITY           SKY/WX    TMP DP  RH WIND       PRES   REMARKS
FOSSTON        FAIR      46  30  53 NW18      30.34S
BEMIDJI        FAIR      47  27  45 N14       30.30S
PARK RAPIDS    FAIR      43  33  68 N8        30.29S
ELBOW LAKE     PTSUNNY   42  39  89 NE10      30.32R
WADENA         FAIR      41  37  87 N9        30.30S
DETROIT LAKES  FAIR      45  36  70 N7        30.33R
MOORHEAD       FAIR      46  34  61 N17G23    30.37R
FERGUS FALLS   PTSUNNY   45  37  76 N12G20    30.31R
MORRIS MN      CLOUDY    45  39  81 N14       30.29R
STAPLES        PTSUNNY   43  41  93 N13       30.29S
$$
  *****  WEATHER ELSEWHERE ACROSS MINNESOTA  *****

CITY           SKY/WX    TMP DP  RH WIND       PRES   REMARKS
DULUTH         PTSUNNY   50  31  48 SE6       30.21S
INTRNTL FALLS  FAIR      44  27  51 NW14      30.27S
ELY            PTSUNNY   45  28  53 NW8       30.23S
CLOQUET        FAIR      52  28  40 NW3       30.22S
WHEATON        RAIN      45  39  81 N12       30.36R
BRAINERD       LGT RAIN  44  36  73 N14       30.28R
HIBBING        CLOUDY    45  30  55 NW15      30.25R
ALEXANDRIA     CLOUDY    45  39  79 N12       30.28S
SAINT CLOUD    CLOUDY    49  34  56 N17G24    30.23R
MINNEAPOLIS    PTSUNNY   62  39  42 N14       30.15R
$$

  *****  WEATHER ACROSS SOUTH DAKOTA  *****

CITY           SKY/WX    TMP DP  RH WIND       PRES   REMARKS
SIOUX FALLS    CLOUDY    50  38  63 NE20      30.21S
BROOKINGS      LGT RAIN  43  38  82 NE20G29   30.24R
WATERTOWN      LGT RAIN  42  40  92 NE20G28   30.27S
HURON          CLOUDY    44  39  82 NE25G35   30.26R
SISSETON         N/A     43  41  93 N13       30.33R
ABERDEEN       LGT RAIN  41  39  93 N18G25    30.39R
MITCHELL       CLOUDY    46  41  82 NE23G32   30.24R
PIERRE         LGT RAIN  37  36  96 N18       30.37R FOG
MOBRIDGE       CLOUDY    42  37  82 N12       30.40R
RAPID CITY     PTSUNNY   39  32  76 N28G33    30.45F
$$

  *****  SOME WEATHER IN NEARBY STATES *****

CITY           SKY/WX    TMP DP  RH WIND       PRES   REMARKS
GLASGOW MT     FAIR      49  28  44 SW3       30.47F
GREAT FALLS MT FAIR      48  25  40 SW14      30.45F
CHEYENNE WY    CLOUDY    30  26  85 N20G33    30.41R WCI  17
SCOTTSBLUFF NE CLOUDY    40  33  76 N14       30.45R
OMAHA NE       PTSUNNY   64  40  41 S3        30.14F
DES MOINES IA  PTSUNNY   67  36  31 VRB3      30.13S
DAVENPORT IA   FAIR      66  28  24 MISG      30.08F
CHICAGO IL     PTSUNNY   59  46  62 N7        30.04F
EAU CLAIRE WI  FAIR      66  38  35 N7        30.10S
LA CROSSE WI   FAIR      62  35  36 NW6       30.10S
$$

  *****  SOME NATIONAL WEATHER *****

CITY           SKY/WX    TMP DP  RH WIND       PRES   REMARKS
LA GUARDIA NY  PTSUNNY   62  37  39 SE13G20   30.37F
RALEIGH NC     CLOUDY    59  58  96 E15       29.97F
ATLANTA GA     PTSUNNY   64  59  83 NW10      29.89S
NEW ORLEANS LA FAIR      72  59  63 NW8       30.04S
OKLAHOMA CITY  PTSUNNY   70  47  43 VRB3      30.14S
ALBUQUERQUE NM PTSUNNY   65  22  19 NW5       30.16R
SALT LAKE CITY FAIR      54  35  48 W8        30.30S
LOS ANGELES CA FAIR      59  52  77 CALM      30.02S FOG
BOISE ID       FAIR      52  30  43 SE15      30.39R
SEATTLE WA     PTSUNNY   61  38  42 N9        30.19F
$$

*** WEATHER ACROSS MANITOBA...SASKATCHEWAN AND ONTARIO ***
                ***ONTARIO***

CITY           SKY/WX    TMP DP  RH WIND       PRES   REMARKS
GERALDTON      CLOUDY    43  27  52 NW8       30.12F
THUNDER BAY    CLOUDY    50  30  46 N9        30.18F
SIOUX LOOKOUT  LGT RAIN  36  25  64 N10G21    30.26R
TORONTO        CLOUDY    59  45  58 SE6       30.15F
BIG TROUT LK   CLOUDY    25  18  74 NW8       30.29R WCI  16
PICKLE LAKE    CLOUDY    28  23  80 N9G18     30.23R WCI  20
DRYDEN         CLOUDY    30  19  64 NW8G17    30.28R WCI  23
KENORA         CLOUDY    32  18  55 N13       30.32R WCI  22
$$
                *** MANITOBA***

CITY           SKY/WX    TMP DP  RH WIND       PRES   REMARKS
BRANDON        SUNNY     43  30  61 NW5       30.44F
DAUPHIN        SUNNY     41  28  60 VRB5      30.44F
ISLAND LAKE    SUNNY     27  18  69 W6        30.39S WCI  20
PILOT MOUND      N/A     41  25  52 N12G20      N/A
THE PAS        MOSUNNY   39  27  60 S10       30.33F
THOMPSON       MOSUNNY   30  23  74 S6        30.32F WCI  24
WINNIPEG       SUNNY     37  21  52 N14G20    30.44R
LYNN LAKE      CLOUDY    37  28  70 S10       30.17F
CHURCHILL      PTSUNNY   28  21  74 SW12      30.20F WCI  18
GILLAM         MOSUNNY   27   9  46 W12       30.33F WCI  16
$$
                ***SASKATCHEWAN***

CITY           SKY/WX    TMP DP  RH WIND       PRES   REMARKS
ESTEVAN        MOSUNNY   52  21  30 W12       30.45F
KINDERSLEY     MOSUNNY   52  28  40 SW23      30.30F
LLOYDMINSTER   PTSUNNY   52  30  43 SW12      30.19F
PRINCE ALBERT  PTSUNNY   50  32  50 SW9       30.28F
REGINA         MOSUNNY   54  27  35 SW16      30.42S
YORKTON        SUNNY     48  30  49 SW8       30.39F
N. BATTLEFORD  SUNNY     54  28  37 W13       30.27F
LA RONGE       PTSUNNY   50  30  46 SE10      30.15F
SASKATOON      PTSUNNY   55  28  35 SW18      30.31F
SWIFT CURRENT  SUNNY     54  25  32 SW20G28   30.37F
$$
NOTE: THESE ARE AUTOMATED STATIONS WITH LIMITED QUALITY CONTROL
      "FAIR" INDICATES FEW OR NO CLOUDS BELOW 12,000 FEET WITH NO
      SIGNIFICANT WEATHER AND/OR OBSTRUCTIONS TO VISIBILITY.
      SKY/WX - SKY CONDITION AND SIGNIFICANT WEATHER.
      TMP - AIR TEMPERATURE.    DP   - DEWPOINT TEMPERATURE.
      RH  - RELATIVE HUMIDITY.  PRES - PRESSURE.
      HX  - HEAT INDEX.         WCI  - WIND CHILL INDEX.
$




USA.gov is the U.S. government's official web portal to all federal, state and local government web resources and services.